This demonstration page uses our WeatherBlox Daily Observations layout. Learn more.

Left ArrowRight Arrow

41.12389, -100.76542

Hourly Observations for September 23, 2020

Temp ( °F °C ) Dew Point ( °F °C ) Humidity (%) Winds ( mph kmh ) Pressure ( in mb ) Visibility ( mi km ) Precip ( " mm )
12:53 am 00:53 Clear 66 18.9 48 8.9 52 52 S 10 17 29.93 1014 10 16 0.00 0.00
1:53 am 01:53 Clear 64 17.8 48 8.9 56 56 S 5 7 29.92 1013 10 16 0.00 0.00
2:53 am 02:53 Clear 59 15 47 8.3 64 64 SW 5 7 29.93 1014 10 16 0.00 0.00
3:53 am 03:53 Clear 55 12.8 47 8.3 74 74 Calm 29.91 1013 10 16 0.00 0.00
4:53 am 04:53 Clear 50 10 45 7.2 83 83 NW 5 7 29.92 1013 10 16 0.00 0.00
5:53 am 05:53 Clear 49 9.4 44 6.7 83 83 Calm 29.93 1013 10 16 0.00 0.00
6:53 am 06:53 Clear 49 9.4 44 6.7 83 83 Calm 29.93 1013 10 16 0.00 0.00
7:53 am 07:53 Sunny 47 8.3 43 6.1 86 86 WNW 3 6 29.96 1015 10 16 0.00 0.00
8:53 am 08:53 Sunny 55 12.8 49 9.4 80 80 Calm 29.95 1014 10 16 0.00 0.00
9:53 am 09:53 Sunny 63 17.2 51 10.6 65 65 SSW 3 6 29.94 1014 10 16 0.00 0.00
10:53 am 10:53 Sunny 70 21.1 50 10 49 49 WSW 6 9 29.92 1013 10 16 0.00 0.00
11:53 am 11:53 Sunny 81 27.2 48 8.9 32 32 W 7 11 29.90 1013 10 16 0.00 0.00
12:53 pm 12:53 Sunny 84 28.9 48 8.9 29 29 SSW 7 11 29.88 1012 10 16 0.00 0.00
1:53 pm 13:53 Sunny 89 31.7 48 8.9 24 24 SSW 7 11 29.86 1011 10 16 0.00 0.00
2:53 pm 14:53 Sunny 91 32.8 47 8.3 22 22 SW 6 9 29.83 1010 10 16 0.00 0.00
3:53 pm 15:53 Sunny 93 33.9 45 7.2 19 19 SW 5 7 29.82 1010 10 16 0.00 0.00
4:53 pm 16:53 Mostly Sunny 94 34.4 46 7.8 19 19 W 8 13 29.82 1010 10 16 0.00 0.00
5:53 pm 17:53 Mostly Sunny 91 32.8 48 8.9 23 23 W 8 13 29.82 1010 10 16 0.00 0.00
6:53 pm 18:53 Mostly Sunny 87 30.6 50 10 28 28 WNW 8 13 29.84 1011 10 16 0.00 0.00
7:53 pm 19:53 Clear 75 23.9 52 11.1 45 45 NNW 5 7 29.87 1012 10 16 0.00 0.00
8:53 pm 20:53 Clear 66 18.9 50 10 56 56 WNW 6 9 29.89 1012 10 16 0.00 0.00
9:53 pm 21:53 Clear 61 16.1 49 9.4 65 65 SE 3 6 29.89 1012 10 16 0.00 0.00
10:53 pm 22:53 Clear 57 13.9 47 8.3 69 69 NNW 3 6 29.88 1012 10 16 0.00 0.00
11:53 pm 23:53 Clear 56 13.3 48 8.9 75 75 Calm 29.87 1011 10 16 0.00 0.00

Powered by AerisWeather